User: anonymous   Login
Location: Kernascl�den
(48.0062°N, 3.3198°W)
Time: 02:28:19
(UTC+00:00)
Language:

DMSP B5D1-3 - Orbit

View from above orbital plane
View from above orbital plane
View from above satellite
View from above satellite

Ground track
Ground track

The orbit data is extracted from the following two-line orbital elements,

1 10820U 78042A   21106.81785635  .00000063  00000-0  37321-4 0  9994
2 10820  98.5301 302.9314 0008979 201.6110 158.4698 14.35379101242110
Epoch (UTC): 16 April 2021 19:37:42
Eccentricity: 0.0008979
inclination: 98.5301°
perigee height: 767 km
apogee height: 780 km
right ascension of ascending node: 302.9314°
argument of perigee: 201.6110°
revolutions per day: 14.35379101
mean anomaly at epoch: 158.4698°
orbit number at epoch: 24211

The dashed part of the orbit path shows where the satellite is in the earth's shadow,  

DLR